Location: R�serve Fauniques des Laurentides
(47.3100°N, 71.1900°W)
Time: 11:14:01
(UTC-04:00)

Cosmos 1674 - Visible Passes

Search period start: 01 July 2015 00:00
Search period end: 11 July 2015 00:00
Orbit: 505 x 533 km, 82.5° (Epoch: 01 July)

Date Brightness Start Highest point End Pass type
(mag) Time Alt. Az. Time Alt. Az. Time Alt. Az.
01 Jul 3.9 21:29:19 10° SSW 21:32:59 45° WNW 21:36:39 10° N visible
07 Jul 6.1 21:43:45 10° W 21:45:03 11° WNW 21:46:11 10° NW visible
08 Jul 6.0 21:29:01 10° W 21:30:55 13° WNW 21:32:40 10° NW visible
